FENGYUN 1C DEB

Satellite information

Favourite Embed

Satellite Type and Status

DEBRISDECAYED

Key statistics

Satellite FENGYUN 1C DEB at a glance.

Uptime

9419

Days in orbit

Revolutions

≈ 15.9

Per day

Orbit

SSO

Sun Synchronous Orbit

Inclination

99.2

Latest

Satellite identification and parameters

Extended collection of information and parameters for FENGYUN 1C DEB.

Object identification

Identified? True

Debris? True

Object name: FENGYUN 1C DEB

International designator: 1999-025GG

Object number (NORAD): 29886

Object ID (CCSDS): 29886

Country: PEOPLES REPUBLIC OF CHINA (PRC)

Current information (Y/N): Y

RCS size: SMALL

Orbital parameters

Decay date: Feb. 21, 2025

Period: 90.662 minutes

Inclination: 99.1628 deg

SMA: 6685.137 km

Apoapsis: 323.573 km

Periapsis: 290.432 km

RAAN: 168.97 deg

Eccentricy: 0.0024787

Argument of periapsis: 313.8777 deg

Mean anomaly: 46.0442 deg

Mean motion: 15.88317303 rev/day

Mean motion (dot): 0.06162792 rev/day2

B* drag term: 0.028615 1/REarth

Two-line elements (TLE)

Creation date: Feb. 15, 2025, 5:32 p.m.

Reference frame: TEME

Reference center: EARTH

Epoch: Feb. 15, 2025, 7:22 a.m. UTC

TLE line 0: 0 FENGYUN 1C DEB

TLE line 1: 1 29886U 99025GG 25046.30700732 .06162792 57237-1 28615-1 0 9998

TLE line 2: 2 29886 99.1628 168.9700 0024787 313.8777 46.0442 15.88317303944371

Live tracking on map

Satellite FENGYUN 1C DEB has decayed and is no longer in orbit. No tracking available.

In-orbit conjunctions

Satellite FENGYUN 1C DEB has decayed and is no longer in orbit. No conjunctions available.

Associated space launch

Chinese polar orbiting meteorological satellite

FENGYUN 1C DEB was lifted into orbit during the mission ‘Long March 4B | Feng Yun 1C’, on board a Long March 4B space rocket.

The launch took place on May 10, 1999, 1:33 a.m. from Launch Complex 7.

For more information about the launch, click the button.

Launch to space Long March 4B | Feng Yun 1C
Long March 4B | Feng Yun 1C

Agency: N/A

Status: Launch Successful

Launch date: May 10, 1999, 1:33 a.m. UTC

Rocket: Long March 4B

Launch pad: Launch Complex 7

Location: Taiyuan Satellite Launch Center, People's Republic of China

...

Latest news about this satellite

There are no fresh news available about this satellite. Check back as we update our databases every day.


Newsletter sign-up

Weekly statistics, charts and insights to help you stay on top of the space industry.